Weather History for San Diego, CA

Change the Weather History Date:

Sunday, November 18, 2012

  Actual Average Record
Temperature  
Mean Temperature 65 °F 61 °F  
Max Temperature 68 °F 69 °F 86 °F (1949)
Min Temperature 61 °F 53 °F 38 °F (1881)
Degree Days  
Heating Degree Days 0 5  
Month to date heating degree days 44 55  
Since 1 July heating degree days 48 76  
Cooling Degree Days 0 0  
Month to date cooling degree days 16 11  
Year to date cooling degree days 899 718  
Growing Degree Days 14 (Base 50)    
Moisture  
Dew Point 56 °F    
Average Humidity 79    
Maximum Humidity 90    
Minimum Humidity 68    
Precipitation  
Precipitation 0.01 in 0.04 in 0.58 in (1973)
Month to date precipitation 0.19 0.53  
Year to date precipitation 4.35 8.33  
Since 1 July precipitation 0.89 1.30  
Snow  
Snow 0.00 in - - ()
Month to date snowfall 0.0  
Year to date snowfall 0.0  
Since 1 July snowfall 0.0  
Snow Depth 0.00 in    
Sea Level Pressure  
Sea Level Pressure 30.14 in    
Wind  
Wind Speed 5 mph (NNW)    
Max Wind Speed 14 mph    
Max Gust Speed 18 mph    
Visibility 10 miles    
Events Rain    
T = Trace of Precipitation, MM = Missing Value Source: NWS Daily Summary

Daily Weather History Graph

Daily Weather History Graph

Search for Another Location

Airport:

Trip Planner

Search our weather history database for the weather conditions in past years. The results will help you decide how hot, cold, wet, or windy it might be!

Date:

Astronomy

Nov. 18, 2012 Rise Set
Actual Time 6:22 AM PST 4:45 PM PST
Civil Twilight 5:55 AM PST 5:12 PM PST
Nautical Twilight 5:25 AM PST 5:41 PM PST
Astronomical Twilight 4:56 AM PST 6:11 PM PST
Moon 10:55 AM PST 10:05 PM PST
Length of Visible Light 11h 16m
Length of Day
10h 23m
Waxing Crescent, 31% of the Moon is Illuminated
Nov 18
Waxing Crescent
Nov 20
First Quarter
Nov 28
Full
Dec 6
Last Quarter
Dec 13
New

Hourly Weather History & Observations

Time (PST) Temp. Dew Point Humidity Pressure Visibility Wind Dir Wind Speed Gust Speed Precip Events Conditions
12:51 AM 64.0 °F 57.9 °F 80% 30.11 in 10.0 mi Calm Calm - N/A   Overcast
1:51 AM 63.0 °F 59.0 °F 87% 30.11 in 10.0 mi Calm Calm - N/A   Mostly Cloudy
2:14 AM 62.6 °F 57.2 °F 82% 30.10 in 10.0 mi Calm Calm - N/A   Overcast
2:40 AM 62.6 °F 57.2 °F 82% 30.10 in 10.0 mi Calm Calm - N/A   Overcast
2:49 AM 62.6 °F 57.2 °F 82% 30.10 in 10.0 mi Calm Calm - N/A   Overcast
2:51 AM 63.0 °F 57.9 °F 84% 30.10 in 10.0 mi Calm Calm - N/A   Overcast
2:59 AM 62.6 °F 57.2 °F 82% 30.10 in 10.0 mi Calm Calm - N/A   Overcast
3:29 AM 62.6 °F 57.2 °F 82% 30.09 in 9.0 mi Calm Calm - 0.01 in Rain Light Rain
3:51 AM 62.1 °F 59.0 °F 90% 30.09 in 8.0 mi Calm Calm - 0.01 in   Overcast
4:38 AM 62.6 °F 59.0 °F 88% 30.10 in 9.0 mi Calm Calm - N/A   Overcast
4:51 AM 62.1 °F 57.9 °F 86% 30.10 in 10.0 mi Calm Calm - N/A   Overcast
5:22 AM 62.6 °F 57.2 °F 82% 30.10 in 9.0 mi Calm Calm - N/A   Overcast
5:32 AM 62.6 °F 57.2 °F 82% 30.10 in 9.0 mi Calm Calm - N/A   Mostly Cloudy
5:51 AM 62.1 °F 57.9 °F 86% 30.10 in 10.0 mi Calm Calm - N/A   Mostly Cloudy
6:25 AM 60.8 °F 57.2 °F 88% 30.11 in 9.0 mi Calm Calm - N/A   Overcast
6:51 AM 62.1 °F 57.9 °F 86% 30.12 in 10.0 mi Calm Calm - 0.00 in Rain Light Rain
7:27 AM 62.6 °F 57.2 °F 82% 30.13 in 10.0 mi Calm Calm - 0.00 in   Mostly Cloudy
7:51 AM 62.1 °F 57.0 °F 84% 30.14 in 9.0 mi Calm Calm - 0.00 in   Mostly Cloudy
8:35 AM 64.4 °F 57.2 °F 77% 30.15 in 9.0 mi Calm Calm - N/A   Mostly Cloudy
8:51 AM 64.0 °F 59.0 °F 84% 30.15 in 8.0 mi WSW 6.9 mph - N/A   Mostly Cloudy
9:51 AM 64.0 °F 57.0 °F 78% 30.17 in 10.0 mi NW 6.9 mph - N/A   Mostly Cloudy
10:51 AM 66.9 °F 55.0 °F 66% 30.16 in 10.0 mi WNW 9.2 mph - N/A   Mostly Cloudy
11:25 AM 66.2 °F 55.4 °F 68% 30.15 in 10.0 mi NW 10.4 mph - N/A   Mostly Cloudy
11:51 AM 66.9 °F 55.9 °F 68% 30.14 in 10.0 mi NW 8.1 mph - N/A   Mostly Cloudy
12:51 PM 66.9 °F 55.9 °F 68% 30.13 in 10.0 mi WNW 10.4 mph - N/A   Mostly Cloudy
1:51 PM 66.9 °F 57.0 °F 70% 30.12 in 10.0 mi WNW 11.5 mph - N/A   Mostly Cloudy
2:51 PM 66.0 °F 55.9 °F 70% 30.13 in 10.0 mi NW 12.7 mph - N/A   Mostly Cloudy
3:51 PM 64.9 °F 55.0 °F 70% 30.13 in 10.0 mi NW 10.4 mph - N/A   Mostly Cloudy
4:51 PM 63.0 °F 55.9 °F 78% 30.14 in 10.0 mi NW 9.2 mph - N/A   Mostly Cloudy
5:51 PM 63.0 °F 55.0 °F 75% 30.16 in 10.0 mi NNW 5.8 mph - N/A   Mostly Cloudy
6:42 PM 62.6 °F 55.4 °F 77% 30.17 in 10.0 mi North 4.6 mph - N/A   Mostly Cloudy
6:51 PM 62.1 °F 55.0 °F 78% 30.17 in 10.0 mi North 4.6 mph - N/A   Mostly Cloudy
7:51 PM 63.0 °F 55.0 °F 75% 30.18 in 10.0 mi NNE 4.6 mph - N/A   Mostly Cloudy
8:51 PM 62.1 °F 54.0 °F 75% 30.19 in 10.0 mi NNW 4.6 mph - N/A   Mostly Cloudy
9:43 PM 60.8 °F 53.6 °F 77% 30.19 in 10.0 mi NE 3.5 mph - N/A   Partly Cloudy
9:51 PM 61.0 °F 54.0 °F 78% 30.19 in 10.0 mi NNE 3.5 mph - N/A   Partly Cloudy
10:51 PM 60.1 °F 54.0 °F 80% 30.20 in 10.0 mi Calm Calm - N/A   Clear
11:51 PM 59.0 °F 54.0 °F 83% 30.20 in 10.0 mi Calm Calm - N/A   Clear